User: anonymous   Login
Location: Clyde
(45.1830°S, 169.3170°E)
Time: 13:36:13
(UTC+13:00)
Language:

BREEZE-M DEB (TANK) - Orbit

View from above orbital plane
View from above orbital plane
View from above satellite
View from above satellite

Ground track
Ground track

The orbit data is extracted from the following two-line orbital elements,

1 34712U 09016C   19080.20037741  .00001602  00000-0  18715-3 0  9999
2 34712  46.0537 145.9293 5073810 319.1242  12.2625  5.52087861195840
Epoch (UTC): 21 March 2019 04:48:32
Eccentricity: 0.5073810
inclination: 46.0537°
perigee height: 283 km
apogee height: 14005 km
right ascension of ascending node: 145.9293°
argument of perigee: 319.1242°
revolutions per day: 5.52087861
mean anomaly at epoch: 12.2625°
orbit number at epoch: 19584

The dashed part of the orbit path shows where the satellite is in the earth's shadow,  

DLR